[[{"header":{"parameterUnit":"m.s-1","parameterCategory":1,"la1":30.2991,"la2":30.254,"lo1":-89.0895,"lo2":-89.0444,"dy":0.0017,"dx":0.0017,"nx":28,"ny":28,"refTime":"2023-09-02T09:00:00:Z","depth":0,"parameterNumber":2,"parameterNumberName":"U-component_of_WINDS"},"data":[0,0,0,0,0,0,0,0,0,0,0,0,0,0,0,0,0,0,0,0,0,0,0,0,0,0,0,0,0,0,0,0,0,0,0,0,0,0,0,0,0,0,0,0,0,0,0,0,0,0,0,0,0,0,0,0,0,0,-1.6066,-1.6066,0,-1.6038,-1.6037,-1.6037,-1.6004,-1.6003,-1.6003,-1.6002,-1.5976,-1.5975,-1.5975,0,0,0,0,0,0,0,0,0,0,0,0,0,-1.6093,-1.6093,-1.6066,-1.6066,-1.6065,-1.6038,-1.6037,-1.6037,-1.6004,-1.6003,-1.6003,-1.6002,-1.5976,-1.5975,-1.5975,0,0,0,0,0,0,0,0,0,0,0,0,0,-1.6075,-1.6093,-1.6066,-1.6045,-1.6043,-1.6038,-1.6037,-1.6037,-1.6004,-1.6003,-1.6003,-1.6002,-1.5976,-1.5975,-1.5975,-1.5988,0,0,-1.5974,-1.5974,0,0,0,0,0,0,0,0,-1.6076,-1.6074,-1.6049,-1.6047,-1.6044,-1.6023,-1.6037,-1.602,-1.6004,-1.6019,-1.6002,-1.6002,-1.5992,-1.5991,-1.5987,-1.5987,-1.5986,-1.5974,-1.5974,-1.5974,-1.5973,0,0,0,0,0,0,0,-1.6077,-1.6075,-1.6055,-1.6049,-1.6046,-1.6038,-1.6035,-1.6034,-1.601,-1.6018,-1.6015,-1.6012,-1.5991,-1.5987,-1.5986,-1.5985,-1.5974,-1.5974,-1.5973,-1.5973,-1.5993,-1.5994,0,0,0,0,0,0,-1.6082,-1.6076,-1.6056,-1.6054,-1.6059,-1.6038,-1.6034,-1.6031,-1.601,-1.6006,-1.6013,-1.6011,-1.5988,-1.5987,-1.5985,-1.5997,-1.5974,-1.5973,-1.5973,-1.5992,-1.5993,-1.5994,0,0,0,0,0,0,-1.6082,-1.608,-1.6057,-1.6064,-1.6061,-1.6039,-1.6035,-1.6031,-1.6027,-1.6007,-1.6002,-1.6013,-1.5988,-1.5986,-1.5987,-1.5996,-1.5973,-1.5973,-1.5991,-1.5992,-1.5993,-1.6023,0,0,0,0,0,0,-1.6083,-1.608,-1.6085,-1.6065,-1.6061,-1.6059,-1.6036,-1.6031,-1.6026,-1.6023,-1.6006,-1.6002,-1.5987,-1.5988,-1.5987,-1.5995,-1.5972,-1.599,-1.5992,-1.5993,-1.6021,-1.6025,-1.6028,0,0,0,0,0,-1.6084,-1.6095,-1.6085,-1.6083,-1.6065,-1.6059,-1.6057,-1.6038,-1.6027,-1.6031,-1.6018,-1.6003,-1.5996,-1.5988,-1.5987,-1.5995,-1.599,-1.5991,-1.5993,-1.6019,-1.6024,-1.6028,0,0,0,0,0,0,-1.6117,-1.6092,-1.6081,-1.6085,-1.6075,-1.6054,-1.6058,-1.6044,-1.6037,-1.6035,-1.6013,-1.6009,-1.6013,-1.6005,-1.5997,-1.6006,-1.599,-1.5992,-1.6011,-1.6015,-1.6019,-1.602,-1.5972,0,0,0,0,0,-1.6125,-1.6122,-1.61,-1.6106,-1.6101,-1.6081,-1.6078,-1.6064,-1.6053,-1.6048,-1.6035,-1.6025,-1.602,-1.6018,-1.6012,-1.602,-1.6015,-1.6025,-1.6029,-1.6032,-1.6033,-1.6035,-1.6039,-1.5999,-1.5999,-1.5999,0,0,-1.6141,-1.6127,-1.6126,-1.6112,-1.6102,-1.61,-1.6077,-1.6076,-1.6073,-1.6048,-1.6048,-1.6038,-1.6026,-1.603,-1.6031,-1.6023,-1.6043,-1.6034,-1.6037,-1.6036,-1.6037,-1.6041,-1.6044,-1.6,-1.6,-1.6,0,0,-1.6168,-1.6158,-1.6161,-1.6151,-1.6136,-1.6122,-1.6123,-1.6105,-1.6097,-1.6096,-1.6077,-1.6075,-1.6067,-1.6058,-1.6053,-1.6077,-1.6062,-1.6076,-1.6094,-1.6096,-1.61,-1.6102,-1.6109,-1.6112,-1.6077,-1.6078,-1.6078,0,-1.619,-1.6184,-1.6164,-1.6163,-1.6157,-1.6134,-1.6136,-1.6129,-1.6113,-1.611,-1.6101,-1.609,-1.608,-1.6081,-1.6087,-1.6084,-1.6084,-1.6077,-1.6101,-1.6103,-1.6105,-1.6111,-1.6114,-1.6079,-1.6079,-1.6079,-1.6079,0,-1.6211,-1.6208,-1.6212,-1.6196,-1.6191,-1.6192,-1.6172,-1.617,-1.6157,-1.6145,-1.6144,-1.6131,-1.6122,-1.6122,-1.611,-1.6121,-1.6116,-1.6105,-1.6088,-1.6111,-1.6116,-1.6119,-1.6081,-1.6081,-1.608,-1.608,0,0,-1.6257,-1.623,-1.6232,-1.6224,-1.6206,-1.6202,-1.6203,-1.6193,-1.619,-1.6181,-1.618,-1.6174,-1.6163,-1.6157,-1.6144,-1.6146,-1.6164,-1.6134,-1.6133,-1.6138,-1.6174,-1.6182,-1.6185,-1.6155,-1.6155,-1.6156,-1.6174,0,-1.628,-1.6277,-1.6258,-1.6261,-1.6257,-1.6235,-1.6235,-1.6224,-1.6212,-1.6208,-1.6196,-1.6191,-1.6177,-1.6173,-1.6175,-1.6161,-1.617,-1.616,-1.6153,-1.6153,-1.6155,-1.6188,-1.6196,-1.6214,-1.6177,-1.6177,-1.6177,0,-1.6305,-1.6295,-1.6297,-1.6278,-1.6275,-1.6276,-1.6265,-1.6261,-1.6248,-1.624,-1.6233,-1.6218,-1.6217,-1.6203,-1.6201,-1.6194,-1.619,-1.6184,-1.6184,-1.6181,-1.6165,-1.6184,-1.622,-1.6222,-1.6181,-1.618,-1.618,0,-1.6336,-1.6324,-1.6323,-1.6317,-1.6295,-1.6296,-1.6287,-1.6273,-1.6268,-1.626,-1.6256,-1.6248,-1.6243,-1.6237,-1.622,-1.6212,-1.6219,-1.6204,-1.6212,-1.6212,-1.6213,-1.6213,-1.6247,-1.6214,-1.6214,-1.6214,-1.6214,0,-1.6362,-1.6363,-1.6336,-1.6335,-1.6336,-1.6316,-1.6318,-1.6307,-1.6296,-1.6292,-1.6274,-1.6272,-1.6251,-1.6246,-1.6234,-1.6233,-1.6232,-1.6224,-1.622,-1.6225,-1.6225,-1.6221,-1.6218,-1.6214,-1.6214,-1.6214,-1.6214,0,-1.6396,-1.6378,-1.6375,-1.6354,-1.6349,-1.6351,-1.6333,-1.6332,-1.6319,-1.6316,-1.6314,-1.6295,-1.6288,-1.6271,-1.6261,-1.6253,-1.6255,-1.6249,-1.6259,-1.6256,-1.6264,-1.6262,-1.6294,-1.6297,-1.6264,-1.6265,-1.6265,0,-1.6412,-1.6412,-1.6391,-1.6387,-1.6379,-1.6373,-1.6368,-1.6348,-1.6344,-1.6329,-1.6329,-1.6321,-1.6313,-1.6304,-1.629,-1.6282,-1.6275,-1.6286,-1.6273,-1.6277,-1.6273,-1.6272,-1.6271,-1.6289,-1.6289,-1.6289,-1.629,0,-1.6443,-1.6434,-1.6426,-1.6415,-1.6408,-1.6399,-1.6389,-1.6387,-1.6366,-1.6361,-1.6354,-1.6348,-1.6337,-1.6329,-1.6318,-1.631,-1.6296,-1.6294,-1.6295,-1.6298,-1.6303,-1.6299,-1.6264,-1.6293,-1.6293,-1.6293,-1.6292,-1.6292,-1.6467,-1.6466,-1.645,-1.6442,-1.6432,-1.6423,-1.642,-1.6407,-1.64,-1.6389,-1.6378,-1.6372,-1.6359,-1.6343,-1.6336,-1.6331,-1.6324,-1.6326,-1.6326,-1.6326,-1.6327,-1.6305,-1.6329,-1.6329,-1.6329,-1.6329,-1.6329,0,-1.6495,-1.6484,-1.6477,-1.6462,-1.6456,-1.6443,-1.6431,-1.6427,-1.6421,-1.641,-1.6402,-1.6394,-1.6386,-1.6371,-1.6361,-1.636,-1.6354,-1.6358,-1.6357,-1.6355,-1.6335,-1.6334,-1.6364,-1.6364,-1.6364,-1.6364,-1.6364,-1.6364,-1.6508,-1.6505,-1.6494,-1.6486,-1.6475,-1.6468,-1.6462,-1.6453,-1.6444,-1.6435,-1.6428,-1.6418,-1.6405,-1.6395,-1.6387,-1.6383,-1.638,-1.6386,-1.638,-1.636,-1.6357,-1.6354,-1.6353,-1.6386,-1.6386,-1.64,-1.64,-1.64]},{"header":{"parameterUnit":"m.s-1","parameterCategory":1,"la1":30.2991,"la2":30.254,"lo1":-89.0895,"lo2":-89.0444,"dy":0.0017,"dx":0.0017,"nx":28,"ny":28,"refTime":"2023-09-02T09:00:00:Z","depth":0,"parameterNumber":3,"parameterNumberName":"V-component_of_WINDS"},"data":[0,0,0,0,0,0,0,0,0,0,0,0,0,0,0,0,0,0,0,0,0,0,0,0,0,0,0,0,0,0,0,0,0,0,0,0,0,0,0,0,0,0,0,0,0,0,0,0,0,0,0,0,0,0,0,0,0,0,1.0718,1.0717,0,1.0695,1.0694,1.0694,1.0638,1.0637,1.0636,1.0635,1.0612,1.0612,1.0613,0,0,0,0,0,0,0,0,0,0,0,0,0,1.0715,1.0715,1.0718,1.0717,1.0717,1.0695,1.0694,1.0694,1.0639,1.0637,1.0636,1.0634,1.0612,1.0612,1.0613,0,0,0,0,0,0,0,0,0,0,0,0,0,1.0707,1.0715,1.0718,1.0687,1.0684,1.0695,1.0694,1.0694,1.0639,1.0637,1.0635,1.0634,1.0612,1.0612,1.0613,1.0653,0,0,1.0615,1.0616,0,0,0,0,0,0,0,0,1.0707,1.0707,1.0692,1.0689,1.0685,1.0668,1.0685,1.068,1.0639,1.0656,1.0635,1.0633,1.0632,1.0631,1.063,1.0652,1.0651,1.0615,1.0616,1.0616,1.0616,0,0,0,0,0,0,0,1.0708,1.0707,1.0709,1.0691,1.0688,1.0674,1.0671,1.0684,1.0654,1.0654,1.065,1.0648,1.063,1.063,1.063,1.065,1.0615,1.0616,1.0616,1.0617,1.0704,1.0706,0,0,0,0,0,0,1.0713,1.0708,1.0709,1.0708,1.0692,1.0676,1.0672,1.0675,1.0654,1.0649,1.065,1.0646,1.063,1.0629,1.0628,1.0674,1.0616,1.0617,1.0617,1.0702,1.0705,1.0707,0,0,0,0,0,0,1.0713,1.0713,1.071,1.0707,1.0706,1.0678,1.0681,1.0676,1.0675,1.065,1.0645,1.0655,1.0628,1.0627,1.0647,1.0673,1.0617,1.0618,1.07,1.0703,1.0706,1.0766,0,0,0,0,0,0,1.0713,1.0714,1.0728,1.0708,1.0706,1.0729,1.0683,1.0676,1.0677,1.0671,1.0654,1.0649,1.0627,1.0647,1.0648,1.0673,1.0618,1.0698,1.0702,1.0705,1.0762,1.0771,1.0778,0,0,0,0,0,1.0713,1.0746,1.0729,1.0729,1.0723,1.0731,1.073,1.0703,1.0679,1.0694,1.0678,1.065,1.067,1.0649,1.065,1.0676,1.0696,1.07,1.0705,1.0758,1.0769,1.0778,0,0,0,0,0,0,1.0769,1.0742,1.0723,1.075,1.0743,1.0721,1.0739,1.0715,1.0715,1.071,1.0677,1.0673,1.0698,1.0689,1.0666,1.0714,1.0679,1.0683,1.0719,1.0729,1.0737,1.0739,1.0619,0,0,0,0,0,1.0785,1.0793,1.0769,1.0795,1.0793,1.0767,1.0769,1.0749,1.074,1.0737,1.0722,1.0715,1.072,1.0724,1.0727,1.076,1.0756,1.0778,1.0787,1.0794,1.0798,1.0816,1.0826,1.0721,1.0721,1.0721,0,0,1.0817,1.0804,1.0811,1.0806,1.0798,1.0808,1.0764,1.0776,1.0783,1.0739,1.0757,1.0746,1.0736,1.0764,1.0775,1.0757,1.0826,1.0799,1.0805,1.0805,1.0822,1.0832,1.0841,1.0724,1.0723,1.0723,0,0,1.0881,1.0871,1.0892,1.0886,1.0874,1.0857,1.0862,1.0844,1.0836,1.0853,1.082,1.0829,1.0837,1.0832,1.083,1.0894,1.0869,1.0896,1.0939,1.0957,1.0966,1.0973,1.0996,1.1005,1.09,1.0901,1.0901,0,1.0923,1.0936,1.0906,1.0921,1.092,1.0881,1.0903,1.0897,1.0888,1.0889,1.0869,1.088,1.087,1.0896,1.0912,1.0912,1.0917,1.0898,1.0967,1.0974,1.098,1.1002,1.1011,1.0904,1.0904,1.0903,1.0903,0,1.0988,1.0997,1.1016,1.1008,1.101,1.1028,1.1002,1.1007,1.0988,1.0973,1.0992,1.098,1.098,1.0984,1.0965,1.1008,1.0997,1.0973,1.0937,1.0994,1.1014,1.1022,1.0909,1.0908,1.0907,1.0906,0,0,1.1086,1.1062,1.107,1.1066,1.1052,1.1059,1.1076,1.1076,1.1081,1.1077,1.1091,1.1099,1.1077,1.1075,1.1055,1.1071,1.1124,1.1044,1.1043,1.106,1.1172,1.1191,1.1201,1.1107,1.1108,1.111,1.1173,0,1.1146,1.1173,1.1148,1.118,1.1189,1.1153,1.1168,1.1161,1.1148,1.1154,1.1139,1.1147,1.1116,1.1115,1.1129,1.1114,1.1146,1.1109,1.112,1.1121,1.1124,1.1211,1.1231,1.1291,1.118,1.1182,1.1183,0,1.122,1.1219,1.1253,1.1237,1.124,1.1254,1.1252,1.1259,1.1251,1.124,1.1239,1.1215,1.1231,1.1197,1.1219,1.1195,1.1198,1.1192,1.1194,1.1194,1.1155,1.1214,1.131,1.1319,1.1195,1.1194,1.1193,0,1.129,1.1297,1.1318,1.1316,1.1298,1.1308,1.1302,1.1292,1.1294,1.1293,1.1295,1.1296,1.1297,1.1299,1.1276,1.1253,1.1302,1.1265,1.1294,1.1295,1.1306,1.1306,1.1404,1.1308,1.1308,1.1308,1.1308,0,1.136,1.1382,1.1349,1.1362,1.1385,1.1357,1.1381,1.1371,1.1363,1.1374,1.1342,1.1353,1.1322,1.133,1.1313,1.1335,1.1335,1.1328,1.1323,1.1331,1.1332,1.1332,1.1328,1.131,1.131,1.1309,1.1309,0,1.1442,1.142,1.1441,1.1422,1.1418,1.1437,1.1421,1.1433,1.1418,1.1432,1.1434,1.1411,1.1419,1.1397,1.1401,1.139,1.1422,1.141,1.1425,1.1421,1.1452,1.145,1.1554,1.1567,1.1462,1.1463,1.1464,0,1.1488,1.1504,1.1488,1.1493,1.1488,1.1496,1.1498,1.1471,1.1475,1.1468,1.1481,1.1486,1.1489,1.1504,1.1488,1.1492,1.148,1.1516,1.148,1.1488,1.1481,1.1481,1.1483,1.1524,1.1525,1.1526,1.1527,0,1.1574,1.1563,1.1567,1.1568,1.1572,1.1571,1.1568,1.1575,1.1545,1.1552,1.1559,1.1562,1.1567,1.1573,1.1573,1.1567,1.1543,1.1539,1.1546,1.1554,1.1562,1.1559,1.1445,1.1536,1.1535,1.1535,1.1534,1.1534,1.164,1.1653,1.1644,1.165,1.1645,1.1644,1.1654,1.1641,1.1647,1.1649,1.1632,1.1644,1.1637,1.1635,1.1631,1.164,1.1624,1.1634,1.1636,1.1639,1.1645,1.1561,1.164,1.164,1.164,1.1639,1.1639,0,1.1724,1.1717,1.1723,1.172,1.1726,1.1702,1.1698,1.1705,1.1715,1.171,1.1714,1.1724,1.173,1.1715,1.1719,1.1729,1.1719,1.1731,1.1731,1.173,1.1659,1.1653,1.174,1.174,1.174,1.174,1.174,1.174,1.1769,1.179,1.1778,1.1797,1.1789,1.18,1.18,1.1799,1.1795,1.1807,1.1812,1.1802,1.1794,1.1797,1.1802,1.1798,1.1801,1.1818,1.181,1.1744,1.1735,1.1725,1.1719,1.1819,1.1819,1.188,1.1881,1.1881]}]]